Wind_Speed
22 22 22 21 21 22 22 22 22 22 23 25 25 26 27 28 29 30 32 32 30 28 28 28 28 29 31 29 31 33 33 33 27 30 30 32 31 31 31 31 27 27 29 17
24 25 26 25 25 25 25 26 26 26 28 29 29 30 32 33 34 35 36 38 37 37 37 36 35 35 35 34 34 35 36 38 35 31 33 36 38 34 34 34 34 33 33 22
28 27 28 29 29 28 27 27 28 29 30 30 31 33 35 37 38 40 41 42 43 43 44 44 44 44 43 43 41 41 41 41 41 40 38 37 40 40 39 39 41 37 39 32
29 31 30 31 30 31 30 30 31 31 31 32 34 35 35 35 36 37 38 40 41 42 43 44 46 48 50 49 49 49 50 49 49 47 46 45 43 42 41 43 42 44 40 39
33 31 31 32 32 33 32 32 32 33 33 33 33 33 32 32 32 34 33 34 36 38 40 42 44 46 47 49 52 53 55 56 57 57 54 55 53 49 47 46 46 48 45 41
34 36 34 33 34 34 34 33 33 34 34 35 34 33 33 33 32 34 36 37 39 42 44 46 48 50 51 52 53 54 55 57 59 62 64 64 63 60 55 54 54 53 54 49
34 36 37 37 35 35 34 35 35 36 36 35 35 35 35 35 34 34 37 37 38 40 42 45 47 50 51 54 54 56 59 59 60 62 63 67 64 64 64 60 60 58 58 56
34 35 36 37 36 35 35 35 34 34 35 36 36 36 35 35 35 34 35 36 36 37 39 41 43 45 47 49 51 52 54 56 57 59 63 66 65 64 65 67 65 64 63 61
32 32 31 32 33 33 33 34 33 33 34 35 35 36 35 34 34 34 33 34 34 34 36 40 44 46 48 50 50 49 51 55 57 58 60 63 61 61 59 63 63 66 68 66
27 27 29 29 29 30 32 32 33 32 32 32 32 32 33 33 33 34 35 36 37 38 42 43 44 45 47 47 47 47 44 44 46 46 51 58 58 59 57 60 66 62 63 66
22 23 23 22 24 27 30 31 30 30 31 30 30 31 31 32 33 35 36 37 40 42 43 42 42 41 41 42 42 44 44 47 43 43 45 48 47 52 57 56 59 63 65 57
19 19 20 22 23 22 26 28 26 27 29 30 30 32 33 35 36 37 39 40 41 38 36 38 40 42 42 42 43 44 45 47 47 48 45 42 43 46 52 54 56 58 60 65
18 21 23 22 23 21 23 26 27 27 29 32 33 33 34 37 37 38 40 40 38 37 36 36 38 39 40 41 42 43 43 45 47 46 43 40 38 42 45 47 48 51 50 57
18 19 20 21 21 26 30 29 30 30 31 32 34 33 34 37 39 40 41 39 36 35 35 36 36 37 38 39 42 43 42 40 40 43 43 42 42 42 44 44 47 51 50 47
20 22 23 24 24 26 27 29 31 32 31 31 36 37 37 38 38 37 36 36 35 34 33 33 33 34 36 38 38 35 32 35 41 40 39 41 40 40 42 43 41 44 47 46
21 22 25 25 26 27 29 30 32 30 33 33 35 37 36 35 35 34 31 31 32 31 29 28 26 28 30 32 25 22 32 38 39 38 40 41 41 37 37 38 39 41 41 39
23 25 25 26 27 27 29 29 30 32 33 33 33 32 30 30 29 28 28 28 28 28 28 26 27 27 27 26 19 24 28 31 35 36 36 37 37 37 38 39 39 40 38 35
23 24 25 27 26 26 28 28 29 29 28 27 26 25 25 26 26 26 27 28 28 28 28 27 26 27 29 28 24 24 26 28 31 35 35 31 27 30 28 33 39 37 38 39
24 25 24 24 24 24 25 24 22 21 20 19 18 17 19 20 22 23 24 24 25 26 27 27 26 25 27 28 25 24 26 27 27 32 34 34 30 26 25 25 27 32 34 37
23 22 20 19 20 20 19 17 15 15 15 16 16 18 18 18 20 22 23 23 24 23 22 23 23 24 23 23 24 24 25 27 27 27 31 38 38 33 31 31 29 31 31 32
18 17 17 16 15 14 12 13 13 14 16 17 19 20 20 22 24 25 26 27 27 28 25 26 23 23 24 22 22 22 22 23 27 25 24 28 34 36 33 31 33 32 31 31
15 14 13 11 9 10 11 12 13 15 17 18 16 17 18 19 23 25 27 25 24 25 24 24 21 22 21 21 21 21 21 15 18 19 18 21 22 25 31 32 32 31 32 31
12 11 8 7 9 9 10 12 14 15 18 18 18 17 18 22 25 27 23 25 23 22 19 13 15 15 17 19 19 19 15 16 18 21 22 22 24 29 31 31 28 26 26 26
9 7 7 9 9 10 11 14 16 17 18 21 21 21 27 27 28 27 27 26 21 17 11 14 14 13 14 14 15 16 16 17 21 20 20 22 19 22 25 20 17 19 19 22
7 6 7 9 10 11 13 14 17 18 16 17 21 22 26 24 29 29 26 24 17 15 19 18 14 14 14 13 12 10 11 14 19 19 22 18 17 21 8 10 14 16 17 19
7 8 9 9 11 12 14 16 16 14 20 25 25 24 26 25 27 27 25 21 18 16 14 15 14 15 13 12 8 9 12 11 10 11 15 14 20 8 3 8 11 13 17 18
7 9 10 9 11 14 15 15 16 18 23 24 21 22 24 24 25 25 23 20 17 16 14 12 10 13 13 12 9 8 9 9 12 13 13 10 10 10 4 5 6 9 12 13
Wind_Direction
261 260 259 260 259 262 261 259 257 254 252 252 250 250 253 256 257 256 259 262 263 258 256 257 258 258 252 249 254 259 260 257 247 260 257 258 254 253 250 250 261 264 264 257
262 258 258 260 262 262 263 261 258 258 257 256 255 254 254 254 254 255 256 258 261 263 263 263 259 257 257 259 257 256 258 262 261 246 247 258 263 259 257 257 254 252 258 256
261 261 261 259 261 263 262 263 261 258 257 257 257 257 257 257 257 259 258 257 257 258 260 263 266 267 266 265 264 264 264 262 262 262 257 248 252 260 259 259 257 256 253 251
269 264 261 262 262 261 260 260 260 259 259 259 258 258 257 256 256 255 257 258 260 262 263 263 262 263 265 266 265 264 265 267 267 266 264 261 255 251 254 259 260 258 257 253
266 268 264 260 263 264 264 264 264 263 261 257 256 256 255 254 256 258 256 258 261 261 261 262 263 263 262 262 264 262 260 259 263 265 265 265 259 256 255 252 254 258 259 256
267 264 264 263 262 263 263 265 266 265 261 259 256 254 252 251 251 254 258 260 259 260 263 264 264 263 263 263 262 262 262 260 258 256 256 256 260 261 258 258 252 252 256 257
270 264 262 261 260 261 261 263 263 262 261 259 259 258 256 254 253 257 261 263 265 267 267 265 264 264 263 263 264 264 263 261 259 257 255 255 256 256 255 253 258 257 253 254
270 265 261 259 259 260 260 260 260 261 260 261 262 261 259 259 260 261 262 265 267 268 268 268 268 269 269 268 267 267 267 267 266 263 260 259 255 254 255 252 249 252 256 256
270 266 260 258 260 263 264 263 261 261 260 259 260 261 261 264 266 267 269 272 271 272 275 275 276 272 269 267 266 265 266 267 267 268 266 264 261 254 253 255 252 249 249 251
268 265 263 263 262 263 265 265 264 261 259 259 260 263 266 267 271 274 276 278 277 278 279 277 274 269 269 268 270 271 269 269 271 271 268 265 262 265 260 248 252 249 251 250
270 268 267 267 269 268 269 265 262 263 263 265 269 271 273 276 278 280 282 283 283 284 281 277 273 269 268 268 268 271 273 274 275 273 272 273 269 261 261 260 253 247 242 245
268 266 263 265 270 271 272 268 267 270 272 273 276 279 280 281 284 287 287 287 287 283 275 274 272 270 267 267 269 269 270 269 269 271 273 271 268 263 258 257 255 251 249 245
261 266 271 267 265 276 283 285 284 282 283 282 282 284 285 285 287 289 289 288 285 280 275 270 270 271 271 271 270 270 269 268 266 268 272 269 264 260 258 258 259 259 255 251
264 263 263 269 275 271 274 273 275 279 283 285 286 288 288 287 287 287 286 284 281 279 274 271 271 272 272 272 272 272 272 272 271 265 263 261 258 256 256 256 256 257 259 254
274 275 274 276 277 277 278 280 281 284 286 288 289 290 289 288 288 287 285 281 278 277 275 274 274 275 273 273 273 278 276 271 268 267 262 260 257 255 256 256 257 260 260 258
283 280 278 281 282 282 283 285 288 291 290 291 291 290 289 287 285 284 281 276 277 278 276 277 278 279 278 277 282 275 264 266 271 272 269 266 266 263 259 260 261 260 260 261
280 280 282 283 285 287 290 291 293 293 295 295 294 293 293 291 290 287 282 278 277 276 275 273 273 274 278 278 288 286 288 280 271 269 266 265 264 261 256 252 255 255 256 259
280 284 286 288 288 290 294 296 299 300 299 298 299 298 295 293 290 287 285 283 282 280 279 278 276 276 276 279 284 288 286 289 283 273 270 268 264 266 262 255 249 248 254 257
283 286 285 285 291 296 301 303 304 302 302 307 309 311 303 302 297 294 291 290 287 285 283 280 280 282 278 279 280 283 286 290 288 276 270 270 265 259 260 252 249 251 254 255
281 281 285 294 299 302 302 301 301 307 314 313 302 310 314 306 301 296 294 292 290 289 288 283 283 287 289 283 285 281 289 290 291 280 270 263 259 253 252 257 256 258 256 255
276 282 293 299 298 298 299 303 310 312 311 310 308 310 308 306 304 305 304 301 295 286 280 277 281 284 284 289 291 291 295 290 288 291 281 270 264 263 264 262 267 266 261 253
278 286 291 293 293 296 301 307 311 309 307 304 305 309 314 311 313 312 307 307 302 289 287 279 279 284 285 277 286 290 304 294 304 295 291 280 270 265 265 266 267 259 257 250
277 280 279 280 295 295 306 310 310 306 304 308 305 300 312 317 313 313 306 311 303 299 299 289 284 282 274 270 278 279 296 293 295 301 293 278 270 270 271 263 260 249 246 244
268 264 274 291 287 293 298 301 305 309 305 299 300 307 319 316 323 320 313 317 301 294 297 267 294 299 293 285 287 290 309 310 312 313 310 304 284 288 288 266 238 232 237 233
236 261 286 293 285 290 297 302 305 307 312 319 320 316 319 311 317 322 320 323 313 292 303 280 277 288 295 295 288 294 317 311 315 330 331 324 320 306 271 204 196 214 218 218
244 277 291 286 284 292 297 303 306 304 307 308 305 309 321 318 315 321 317 322 313 302 301 300 275 290 287 285 290 307 333 321 332 349 356 357 350 8 129 159 183 202 214 211
263 283 289 285 291 298 305 306 309 304 313 320 315 316 319 321 326 315 320 320 312 301 294 289 276 276 279 282 298 327 331 307 331 342 341 349 19 15 67 141 184 195 210 225
Height
5849 5850 5850 5850 5851 5852 5853 5853 5854 5855 5856 5858 5859 5860 5860 5861 5861 5862 5862 5863 5865 5868 5870 5871 5872 5874 5875 5877 5877 5878 5878 5879 5885 5885 5885 5885 5887 5888 5888 5888 5893 5892 5892 5900
5842 5843 5844 5844 5845 5846 5846 5847 5847 5848 5849 5850 5851 5852 5853 5852 5853 5854 5855 5855 5856 5859 5860 5862 5863 5865 5867 5869 5870 5870 5872 5871 5875 5880 5881 5879 5878 5882 5883 5884 5884 5885 5886 5894
5835 5836 5836 5837 5838 5838 5839 5840 5840 5841 5842 5842 5843 5843 5844 5845 5845 5846 5846 5846 5847 5849 5850 5851 5852 5854 5855 5857 5860 5861 5861 5863 5865 5868 5872 5874 5872 5872 5874 5874 5873 5878 5877 5883
5827 5828 5829 5829 5830 5830 5831 5832 5832 5832 5833 5833 5833 5834 5835 5835 5835 5836 5836 5837 5837 5838 5839 5841 5841 5842 5843 5844 5846 5848 5849 5850 5851 5854 5857 5859 5862 5866 5865 5863 5865 5864 5871 5871
5818 5819 5819 5820 5821 5822 5822 5823 5824 5824 5824 5823 5824 5824 5825 5826 5825 5826 5827 5827 5827 5827 5828 5829 5828 5829 5831 5831 5832 5833 5835 5836 5836 5838 5841 5842 5844 5850 5853 5854 5854 5853 5858 5862
5809 5809 5810 5811 5811 5812 5812 5812 5813 5814 5814 5814 5815 5816 5816 5817 5817 5816 5816 5817 5818 5817 5817 5818 5817 5816 5817 5817 5818 5819 5819 5819 5820 5820 5824 5826 5826 5830 5837 5839 5841 5845 5845 5850
5798 5798 5799 5800 5801 5802 5802 5802 5803 5803 5803 5804 5804 5805 5806 5807 5808 5808 5806 5806 5806 5805 5805 5805 5804 5803 5803 5802 5803 5803 5803 5804 5804 5804 5807 5806 5813 5814 5817 5823 5825 5829 5833 5836
5787 5787 5788 5789 5790 5792 5792 5792 5793 5792 5792 5792 5793 5794 5794 5795 5795 5796 5796 5794 5794 5793 5792 5792 5791 5790 5790 5790 5789 5789 5788 5787 5787 5789 5791 5794 5797 5798 5801 5802 5809 5813 5817 5821
5776 5776 5777 5779 5780 5781 5781 5782 5783 5783 5783 5783 5783 5783 5783 5783 5783 5783 5783 5782 5782 5781 5780 5779 5777 5775 5775 5775 5775 5775 5774 5771 5772 5773 5772 5774 5781 5786 5788 5785 5788 5797 5801 5805
5766 5767 5768 5769 5770 5771 5772 5773 5773 5774 5774 5774 5774 5774 5773 5773 5773 5771 5770 5768 5769 5768 5767 5765 5765 5763 5761 5761 5760 5759 5759 5757 5756 5757 5755 5758 5766 5766 5768 5771 5778 5780 5785 5790
5758 5759 5760 5761 5762 5763 5764 5764 5764 5765 5765 5765 5764 5764 5763 5762 5761 5760 5759 5757 5754 5753 5751 5750 5750 5750 5749 5749 5748 5746 5746 5742 5744 5743 5741 5742 5749 5751 5748 5754 5758 5759 5767 5771
5752 5752 5753 5754 5755 5756 5756 5757 5757 5756 5756 5756 5755 5754 5753 5751 5749 5747 5745 5744 5742 5739 5737 5736 5735 5736 5735 5736 5736 5733 5733 5731 5731 5730 5730 5730 5732 5732 5733 5733 5737 5741 5747 5751
5746 5747 5748 5748 5749 5749 5750 5750 5750 5749 5747 5746 5745 5744 5742 5740 5737 5734 5733 5731 5728 5726 5725 5724 5724 5723 5723 5722 5722 5720 5718 5716 5717 5718 5720 5719 5720 5719 5718 5719 5720 5722 5730 5734
5741 5741 5741 5742 5741 5742 5742 5742 5741 5740 5739 5737 5734 5732 5730 5728 5726 5723 5720 5718 5717 5715 5714 5713 5712 5710 5710 5710 5708 5707 5705 5705 5705 5705 5704 5704 5705 5705 5707 5708 5708 5708 5711 5717
5736 5736 5736 5735 5735 5734 5734 5733 5731 5730 5730 5727 5723 5721 5719 5717 5714 5711 5708 5706 5705 5704 5703 5701 5700 5698 5698 5698 5698 5698 5694 5693 5690 5691 5691 5690 5692 5694 5694 5695 5696 5696 5699 5703
5730 5729 5729 5728 5728 5727 5725 5724 5721 5720 5718 5716 5714 5711 5708 5706 5703 5700 5698 5696 5694 5693 5693 5691 5690 5688 5688 5689 5689 5684 5681 5678 5678 5679 5678 5679 5681 5686 5686 5685 5686 5687 5688 5691
5723 5722 5722 5720 5719 5717 5716 5715 5713 5710 5708 5705 5703 5700 5697 5694 5692 5690 5689 5688 5686 5685 5684 5683 5682 5680 5678 5678 5679 5674 5672 5670 5668 5667 5667 5668 5668 5670 5672 5673 5674 5675 5677 5680
5716 5715 5714 5712 5711 5709 5708 5706 5704 5701 5699 5696 5694 5692 5690 5687 5685 5683 5681 5679 5677 5677 5675 5674 5673 5672 5669 5669 5669 5666 5663 5660 5658 5657 5656 5657 5659 5658 5660 5660 5662 5665 5667 5668
5708 5707 5706 5705 5704 5702 5700 5698 5696 5694 5694 5690 5688 5686 5684 5682 5679 5677 5675 5673 5671 5670 5667 5665 5665 5663 5661 5660 5659 5657 5654 5652 5650 5646 5646 5646 5648 5650 5650 5652 5654 5655 5656 5657
5700 5701 5700 5698 5696 5694 5694 5692 5691 5689 5687 5685 5683 5682 5679 5678 5674 5672 5670 5667 5665 5663 5662 5659 5657 5655 5654 5652 5650 5649 5647 5643 5640 5639 5637 5633 5634 5637 5641 5642 5644 5645 5646 5647
5694 5694 5693 5692 5691 5690 5689 5688 5687 5686 5684 5681 5679 5677 5674 5671 5668 5665 5662 5658 5656 5655 5655 5652 5651 5649 5647 5645 5643 5641 5639 5636 5632 5629 5628 5626 5624 5627 5628 5631 5632 5634 5635 5637
5688 5689 5688 5687 5687 5686 5686 5685 5684 5682 5680 5677 5675 5672 5669 5665 5662 5659 5655 5651 5648 5646 5645 5644 5644 5642 5641 5640 5638 5635 5632 5629 5626 5622 5620 5618 5617 5617 5618 5619 5620 5621 5623 5626
5683 5684 5684 5684 5684 5684 5683 5681 5680 5677 5675 5673 5670 5668 5665 5661 5658 5654 5649 5645 5643 5640 5638 5637 5637 5636 5634 5633 5631 5629 5626 5623 5621 5617 5614 5612 5610 5609 5607 5607 5607 5610 5614 5617
5679 5680 5681 5681 5680 5680 5679 5677 5675 5674 5671 5667 5666 5663 5661 5656 5652 5647 5642 5640 5636 5635 5633 5632 5630 5630 5629 5627 5626 5624 5623 5620 5617 5612 5608 5604 5600 5599 5597 5596 5599 5604 5607 5610
5676 5678 5678 5678 5677 5676 5674 5673 5670 5668 5666 5663 5661 5658 5655 5650 5646 5642 5637 5634 5631 5630 5628 5627 5627 5627 5625 5623 5622 5621 5619 5616 5614 5609 5603 5599 5595 5590 5588 5591 5595 5600 5603 5606
5674 5674 5675 5674 5673 5672 5671 5669 5667 5665 5663 5659 5655 5652 5648 5646 5642 5638 5634 5631 5628 5626 5624 5623 5623 5622 5621 5620 5618 5617 5616 5614 5612 5608 5603 5599 5594 5591 5591 5593 5596 5599 5601 5604
5671 5671 5671 5670 5669 5668 5666 5664 5662 5659 5657 5654 5650 5648 5645 5642 5638 5634 5631 5627 5625 5622 5620 5620 5619 5619 5618 5616 5615 5615 5615 5613 5611 5608 5604 5601 5598 5596 5597 5598 5600 5602 5604 5606